Theta_e
319 328 329 329 331 330 331 332 331 334 335 334 334 337 339 338 338 341 338 338 337 333 337 337 329 334 336 334 332 332 334 337 336 337 336 336 334 332 331 329 329 330 330 327 328 328 328 328 327
319 323 329 330 330 329 331 331 335 333 334 335 337 338 340 343 340 338 338 338 335 335 337 336 331 334 334 335 334 333 335 335 336 336 334 333 333 331 330 329 327 328 328 328 327 327 328 328 327
316 324 332 330 329 329 334 334 332 330 337 337 341 340 340 343 339 338 339 338 335 334 336 336 329 333 334 334 335 335 334 334 336 335 334 333 332 330 327 328 328 327 327 327 327 327 327 327 327
320 327 328 331 329 329 334 331 332 333 336 333 340 343 339 336 339 338 338 337 335 334 336 335 327 331 332 334 334 334 333 333 334 334 334 331 330 326 329 330 328 326 326 326 326 326 323 321 320
321 328 328 329 329 330 330 328 327 336 338 337 339 342 342 336 338 338 337 336 334 333 337 336 328 329 327 328 328 329 326 326 328 330 331 328 324 326 328 326 325 325 325 324 324 322 318 317 317
325 327 330 330 328 326 327 327 329 331 334 338 339 340 341 335 337 337 337 336 334 333 336 336 331 331 331 327 323 320 321 321 322 325 328 327 325 326 326 325 325 325 325 323 316 314 313 313 312
328 329 330 329 328 328 326 326 330 329 331 336 337 340 339 336 335 336 337 335 332 334 335 336 335 332 331 325 323 324 322 322 325 326 327 327 324 324 324 324 325 326 323 317 313 312 311 311 311
325 327 329 329 329 328 327 327 326 328 331 334 336 339 341 337 335 335 335 333 332 333 334 336 335 333 333 330 327 327 323 323 324 326 324 325 324 325 324 323 323 325 319 315 314 311 311 311 311
319 329 329 328 329 327 325 327 325 324 331 336 337 337 336 336 334 334 333 331 332 332 334 336 335 332 333 332 331 328 325 324 323 325 325 325 325 324 324 323 323 323 320 315 314 315 313 313 313
324 331 330 326 326 327 326 324 325 329 332 337 339 334 334 335 334 334 333 331 331 331 332 334 335 333 333 334 333 331 330 328 327 325 325 324 325 324 324 324 322 322 320 318 319 319 318 319 321
323 330 329 326 325 325 325 322 321 328 331 333 337 337 333 332 334 334 333 332 329 329 332 333 334 333 333 333 334 333 331 330 328 326 326 325 324 324 324 324 323 323 322 323 323 324 323 323 322
324 322 324 327 323 321 323 323 323 325 328 326 328 335 333 334 334 333 334 331 330 328 330 332 332 334 333 334 334 333 332 331 328 327 326 325 324 324 325 324 324 324 323 324 324 323 324 323 323
326 324 321 322 321 320 319 322 324 323 323 321 326 330 335 335 334 333 334 330 329 330 330 331 332 332 333 334 334 334 332 331 329 327 326 325 325 324 324 324 324 323 323 323 323 323 324 324 324
315 318 326 324 321 321 321 323 320 323 323 322 326 328 333 336 334 334 333 332 330 329 330 331 331 331 332 335 334 333 332 331 329 327 327 325 325 324 324 324 323 323 323 324 324 324 324 324 324
313 320 325 326 324 322 322 326 323 325 323 326 329 330 330 334 334 335 333 333 332 330 330 331 331 331 330 330 334 333 333 331 329 327 327 326 325 325 324 325 324 324 324 324 324 325 325 325 325
317 318 327 325 326 324 323 331 327 324 323 326 327 329 332 330 333 334 334 333 333 331 330 330 330 330 330 329 331 332 332 331 330 328 327 327 326 326 326 326 326 325 325 324 324 325 326 326 327
314 314 320 322 325 325 325 328 327 326 325 325 326 326 329 332 330 332 334 334 333 332 331 330 330 330 330 329 330 331 331 331 330 329 329 328 327 327 327 327 327 326 326 326 325 326 327 328 328
305 312 315 320 318 320 327 327 326 324 324 324 325 326 326 329 333 331 330 333 334 333 332 331 330 330 330 329 331 332 332 331 330 330 330 329 329 328 327 327 327 327 327 327 327 327 328 328 329
310 311 314 314 313 312 317 322 326 324 324 323 324 325 325 327 328 332 330 330 333 333 333 332 331 331 331 330 331 332 332 331 331 331 331 330 330 329 328 327 328 328 328 329 329 329 329 329 328
308 309 310 310 310 311 314 316 317 320 324 325 325 324 323 323 325 330 334 330 329 332 333 333 333 332 332 332 332 332 331 332 332 332 331 331 330 330 329 329 329 329 329 329 330 330 329 327 328
301 305 306 311 311 310 311 313 313 314 317 321 322 323 323 322 322 323 332 334 331 330 331 332 332 333 333 334 334 332 332 333 333 333 332 331 330 330 330 330 329 330 330 330 331 331 329 328 328
299 300 304 307 311 312 310 309 311 312 314 317 320 322 323 322 320 320 323 332 335 334 332 331 332 333 334 334 333 332 332 333 334 333 333 332 331 330 330 330 330 329 329 330 330 330 330 329 327
297 304 305 306 308 311 312 312 308 309 311 314 316 320 322 322 323 320 318 325 332 334 334 333 332 332 332 333 333 333 333 334 335 333 332 332 332 331 331 330 330 330 330 330 330 330 330 330 329
301 302 302 304 305 309 307 311 309 308 312 313 315 316 319 321 322 323 320 319 319 329 333 334 333 332 332 332 332 333 333 334 332 332 332 332 332 331 331 331 331 330 331 331 331 331 330 329 329
302 302 299 304 304 303 304 308 308 308 310 313 313 315 317 319 321 320 321 318 320 323 328 333 333 332 332 332 332 332 332 333 332 332 332 333 331 330 329 329 329 329 328 328 329 328 327 327 327
300 301 299 300 303 300 300 306 308 309 308 310 310 310 313 317 319 320 319 318 321 322 324 327 329 329 330 331 330 331 332 331 331 329 327 325 323 321 321 322 324 325 324 325 324 324 323 322 322
299 301 300 302 302 306 304 304 305 308 308 310 311 311 311 314 314 317 316 317 319 319 320 323 324 323 325 325 325 326 328 327 323 321 319 315 312 313 311 311 311 312 313 314 315 315 315 314 314
298 298 303 304 301 301 304 305 305 307 307 307 310 312 311 309 309 310 311 312 311 309 313 316 317 317 316 318 320 321 320 318 316 314 312 310 309 310 310 310 311 308 307 305 305 305 304 304 303
302 301 299 303 305 302 302 303 306 307 307 306 306 308 309 309 308 307 307 306 306 305 308 309 311 311 310 309 311 313 311 312 310 312 310 311 310 307 304 303 302 301 300 301 301 300 299 298 298
302 302 301 302 300 300 303 304 305 305 306 306 307 307 305 305 303 302 302 303 303 301 301 302 302 304 305 305 306 306 309 309 304 305 306 304 300 299 299 298 297 296 296 296 296 295 295 294 294
Wind_Speed
4 0 2 4 5 4 4 4 3 3 3 1 3 3 1 4 2 3 9 10 20 24 22 21 23 20 18 20 20 21 19 19 20 20 18 17 16 16 15 15 17 16 15 14 14 14 13 13 13
5 3 3 2 4 7 6 2 5 3 3 5 5 3 3 4 4 7 13 11 24 24 23 21 24 21 20 22 22 21 19 17 16 15 15 15 15 14 15 15 15 15 14 13 13 13 14 13 12
4 4 3 3 5 7 3 3 6 3 6 4 3 2 2 4 4 13 5 22 25 24 23 22 24 21 21 21 21 21 19 17 16 14 13 14 14 13 14 14 14 14 12 11 11 12 12 13 10
2 4 2 6 9 5 2 2 3 4 5 3 2 4 4 3 6 8 16 26 25 24 22 23 25 23 21 21 20 18 16 14 14 13 13 12 13 14 12 15 13 11 11 10 10 10 10 10 9
2 4 4 5 7 3 4 3 3 7 4 4 5 5 3 2 4 11 21 24 25 24 22 23 24 22 22 20 18 15 14 13 13 13 13 11 12 17 15 11 10 11 9 9 9 8 7 7 6
3 3 6 10 8 4 4 3 4 7 4 4 5 6 4 4 9 16 21 22 23 24 23 21 23 20 21 19 17 14 13 12 12 12 16 13 14 16 15 12 10 8 8 8 7 6 5 4 3
8 6 9 7 6 5 5 3 5 3 5 6 1 6 4 8 11 17 21 20 21 21 23 21 21 20 21 18 16 15 13 13 15 15 17 15 13 13 11 10 9 7 7 6 5 4 3 2 1
4 5 7 7 9 9 4 2 2 5 3 2 1 4 4 13 16 18 19 20 20 20 21 22 21 20 19 17 17 15 13 12 15 15 15 16 13 12 10 11 7 8 6 4 3 2 2 1 2
2 7 11 13 11 7 4 5 3 1 3 3 2 2 2 23 21 19 20 20 20 21 21 21 22 21 20 17 17 15 13 12 12 15 14 16 11 11 10 9 9 7 3 4 3 3 3 3 4
7 11 17 9 12 6 5 4 2 4 7 7 6 6 13 22 21 20 22 22 25 25 22 20 22 22 21 18 17 15 13 12 12 11 13 11 10 10 9 9 7 6 5 4 4 3 4 4 4
7 14 16 10 8 8 6 5 3 5 7 7 10 11 16 20 21 22 22 21 22 24 24 22 23 23 22 20 18 16 14 12 11 11 11 11 11 9 8 7 7 6 6 4 4 5 4 5 5
8 12 12 11 7 6 7 3 5 8 2 3 3 11 18 18 22 25 24 24 24 23 24 23 22 21 23 20 19 17 15 13 12 12 12 10 9 8 8 7 7 6 6 6 5 6 6 7 8
11 10 7 11 5 9 4 10 9 9 6 4 2 10 16 17 21 22 21 20 22 23 23 24 22 22 23 22 19 18 17 15 12 12 12 11 10 8 7 7 7 6 7 7 6 7 7 8 8
5 9 9 6 12 7 8 13 6 9 8 8 7 10 14 17 23 21 23 23 25 25 24 23 23 23 20 23 21 19 17 16 14 13 12 13 11 9 8 8 7 7 7 7 7 8 9 9 9
5 8 8 14 8 9 9 19 14 19 8 8 8 8 12 15 21 27 26 26 26 25 24 25 24 23 22 23 19 19 18 16 15 15 14 13 13 11 10 9 9 8 8 8 8 9 9 10 10
4 6 13 10 13 8 12 25 22 21 17 20 18 11 10 15 19 23 23 24 25 24 25 25 26 27 26 26 24 19 18 18 16 15 14 16 15 14 12 11 10 9 8 8 8 8 8 10 10
7 12 18 13 8 10 18 20 22 18 19 22 22 18 15 13 17 24 24 25 25 26 25 24 25 26 28 27 20 20 19 18 16 15 15 15 15 15 14 13 11 10 9 9 8 8 9 9 10
12 10 10 12 2 8 15 20 18 9 19 21 22 22 19 16 17 22 25 25 25 25 25 24 24 26 26 27 21 19 18 18 16 16 16 15 15 15 15 13 12 11 10 10 10 10 9 11 13
9 8 10 7 8 12 13 19 23 22 16 14 20 19 20 19 22 18 23 26 25 26 27 26 26 27 27 28 22 20 21 20 19 18 18 16 16 15 16 16 14 14 13 12 11 11 10 10 11
10 13 15 13 14 12 16 21 19 22 22 23 20 18 20 19 17 15 21 25 29 29 29 28 27 28 33 30 24 18 20 20 19 17 17 20 18 17 17 17 16 17 16 15 13 11 9 10 12
11 14 10 7 12 17 16 28 28 26 23 22 23 23 21 19 19 17 19 27 28 28 31 31 30 28 28 26 23 19 13 13 16 16 16 19 18 20 19 18 17 15 14 13 12 11 12 9 11
9 6 13 12 6 7 9 12 15 21 29 28 24 22 23 22 18 16 17 22 27 32 29 29 30 30 29 27 24 25 22 19 18 18 20 21 22 22 21 20 19 18 17 17 17 16 16 15 14
4 6 3 8 12 9 16 9 15 19 19 21 26 25 23 23 22 20 19 23 24 22 25 28 27 28 28 29 28 26 23 20 15 14 18 16 15 18 20 20 20 20 20 19 17 16 16 17 19
1 4 6 7 8 12 19 15 13 17 14 13 17 22 25 24 21 21 24 22 22 20 22 24 28 28 29 29 29 26 23 19 18 16 14 14 14 13 13 14 14 14 13 13 15 14 14 15 15
5 4 3 6 7 10 10 15 20 10 9 6 5 9 16 20 21 20 19 16 17 17 19 23 25 26 26 27 26 24 21 18 19 18 15 13 12 11 9 7 7 7 6 8 8 6 5 6 9
12 12 5 7 7 9 16 11 6 2 12 11 12 14 9 12 16 18 16 20 17 13 14 16 20 22 23 22 24 24 23 22 18 15 13 10 9 5 4 3 3 3 3 4 4 4 5 5 5
5 11 18 11 15 6 7 19 17 9 10 8 7 7 12 6 7 10 10 14 11 9 12 16 19 21 24 25 24 25 25 23 18 14 11 9 5 4 3 1 1 1 0 1 1 3 1 3 3
13 3 5 7 6 9 9 16 11 3 13 17 10 9 6 4 2 3 3 9 10 9 12 17 19 22 22 27 29 29 27 25 22 16 7 10 6 3 2 1 2 2 3 5 4 5 6 5 4
6 5 7 5 5 8 8 8 2 2 5 10 10 6 6 3 2 1 4 6 11 13 14 19 23 25 25 24 30 32 27 22 18 20 14 6 6 7 9 9 7 5 4 5 4 4 5 6 6
5 15 14 8 10 10 12 18 3 4 6 7 12 8 3 0 2 3 5 9 10 12 15 18 21 24 27 25 22 21 25 19 16 15 15 15 13 13 11 10 8 6 5 7 6 5 5 6 6
Wind_Direction
2 352 233 232 223 242 214 190 290 217 211 113 138 238 178 31 354 45 140 150 156 155 161 158 153 154 152 152 146 146 145 133 132 122 123 118 111 108 104 101 106 109 107 102 94 86 86 96 93
347 288 227 200 239 209 178 175 214 298 338 132 132 151 174 99 74 117 140 161 156 154 159 160 158 158 152 149 148 147 144 134 129 129 123 119 118 113 113 110 109 111 110 104 95 89 89 99 96
325 293 238 212 226 219 176 173 304 295 155 185 155 3 10 88 94 152 153 155 155 156 160 163 162 162 156 151 148 152 154 149 136 137 128 123 120 118 107 120 113 113 113 109 101 94 92 103 103
335 229 162 233 206 216 245 40 337 190 193 240 182 143 116 19 144 167 154 155 156 158 162 167 166 168 164 161 161 159 158 158 150 147 136 132 131 127 122 125 111 112 113 114 111 101 98 97 98
341 252 216 223 225 230 236 274 288 196 181 178 200 141 110 81 130 145 155 158 158 159 162 164 168 169 171 169 169 168 168 170 171 168 159 155 143 143 140 146 126 127 121 116 113 113 107 102 97
227 275 226 219 206 222 247 218 266 224 198 155 199 155 118 122 141 150 157 162 161 160 162 167 171 174 171 170 170 170 172 176 175 164 158 157 148 154 152 149 145 140 133 130 132 128 121 109 94
258 231 237 235 229 242 237 175 239 240 218 207 130 173 110 160 156 155 158 163 164 165 164 168 171 177 175 175 172 169 164 164 161 162 159 162 154 161 163 170 173 154 158 152 147 144 142 138 105
254 243 219 223 217 236 178 222 295 240 214 89 188 186 161 165 156 154 159 164 167 171 174 172 172 175 176 179 177 173 167 165 166 171 177 169 165 167 163 168 177 168 171 177 182 182 196 238 277
254 228 230 224 207 211 167 222 159 322 227 189 151 31 64 149 152 153 161 168 174 178 181 177 176 177 179 181 182 181 178 175 172 183 184 179 176 176 188 188 179 189 224 216 214 236 249 272 298
222 228 232 228 218 207 184 229 185 230 197 200 171 93 134 152 158 165 175 175 182 180 187 184 181 181 181 183 186 185 185 181 180 181 189 191 191 194 191 202 219 236 243 232 238 257 288 329 315
190 232 234 232 213 208 213 216 195 234 228 217 206 160 160 166 173 179 185 188 190 185 186 189 188 186 185 187 185 189 192 192 194 192 189 193 192 198 204 212 219 228 244 256 280 291 295 299 306
219 232 241 241 205 193 212 204 214 223 271 82 114 161 167 178 184 187 192 189 189 193 193 192 193 189 190 190 191 192 195 198 196 197 198 199 202 209 209 216 224 236 239 250 269 275 287 298 298
235 219 244 243 230 218 181 214 231 226 211 200 146 175 185 188 191 192 198 197 192 196 199 198 196 197 192 191 195 197 197 202 205 203 204 204 209 212 215 222 230 242 258 266 274 281 286 294 299
330 281 263 281 230 223 213 231 207 224 233 226 207 199 201 197 196 192 197 197 200 196 200 204 203 202 202 198 196 199 201 203 204 209 215 211 214 220 226 237 242 248 256 268 273 275 284 284 287
291 281 245 232 231 230 213 241 230 238 206 213 213 210 207 208 200 205 200 199 197 202 198 204 205 206 209 212 207 205 206 205 206 209 214 218 219 226 229 239 246 253 253 259 273 277 280 288 290
252 235 238 206 205 217 206 242 225 233 230 239 238 224 210 213 211 209 206 205 202 200 202 202 207 207 211 213 213 210 211 210 214 214 214 219 223 225 229 238 247 250 257 257 260 267 274 285 289
222 245 229 239 215 228 212 242 238 231 230 239 241 232 226 221 213 212 208 207 204 203 202 204 204 209 211 211 211 216 213 212 217 218 219 222 226 229 231 238 243 241 241 248 253 265 271 282 291
227 226 223 223 182 270 247 243 249 237 228 233 237 238 229 229 223 211 208 206 205 206 205 207 206 207 209 212 208 216 221 218 218 222 226 223 225 228 231 238 241 235 238 243 246 256 268 279 292
283 257 253 265 277 322 268 257 248 248 236 236 242 238 237 225 232 214 207 203 203 207 208 207 204 204 202 208 206 206 215 220 219 219 221 223 223 224 231 237 243 244 243 249 250 253 261 272 278
262 260 256 269 276 277 273 269 264 259 251 245 240 236 236 237 234 215 204 202 203 204 207 212 210 203 206 202 199 213 217 223 226 221 218 221 226 231 236 239 245 251 255 254 249 248 250 264 277
247 255 256 286 304 272 275 277 261 257 250 248 246 245 241 236 233 223 208 206 206 207 207 207 210 209 202 203 204 205 213 217 216 221 220 221 227 231 232 237 238 237 235 243 251 248 242 254 274
264 251 247 264 285 264 197 275 250 231 239 238 238 237 238 235 233 229 218 214 209 213 208 207 207 207 207 202 201 201 202 205 211 215 227 226 226 229 231 235 239 245 252 256 261 265 268 266 258
273 324 266 252 257 293 248 260 260 242 253 242 234 234 235 234 232 223 214 213 215 215 213 212 209 208 206 204 203 201 208 214 212 207 216 224 230 237 242 247 250 251 256 261 261 262 262 266 269
268 279 242 255 259 250 237 229 265 235 248 258 235 239 235 232 234 230 223 227 231 222 213 210 209 209 206 205 206 206 209 206 204 211 210 219 221 225 231 240 245 252 255 262 270 277 280 283 277
204 201 221 210 206 244 200 213 249 282 293 259 282 276 257 236 234 237 227 216 216 212 216 211 207 207 206 205 205 207 205 204 201 208 207 212 202 202 203 206 211 217 234 243 255 262 282 294 296
211 208 216 234 212 258 207 231 234 324 247 265 288 269 272 256 241 239 226 213 196 196 197 202 202 198 195 197 194 189 183 177 181 168 155 152 159 156 146 148 171 201 222 242 248 260 263 270 268
183 215 241 289 281 264 231 245 264 262 278 265 272 275 255 257 258 247 221 193 179 165 180 182 178 174 179 175 171 162 157 147 128 114 110 112 108 92 51 51 105 77 206 239 255 221 261 298 320
241 357 207 207 244 246 228 244 245 228 237 249 246 260 260 303 248 207 195 159 138 128 139 149 158 156 152 153 147 137 131 131 136 137 150 141 155 138 129 100 53 86 79 72 68 57 53 40 19
188 218 222 287 254 265 261 241 143 4 4 321 310 321 323 316 324 220 141 135 131 128 133 137 145 145 143 142 143 140 136 145 149 150 155 148 179 169 163 150 144 137 127 98 69 45 32 25 8
279 254 235 236 242 239 264 265 277 187 359 333 318 326 309 223 129 132 125 123 115 113 117 121 128 130 139 140 134 136 144 148 151 123 143 155 159 150 145 133 130 115 88 85 77 57 45 35 20